Date,TemperatureHighF,TemperatureAvgF,TemperatureLowF,DewpointHighF,DewpointAvgF,DewpointLowF,HumidityHigh,HumidityAvg,HumidityLow,PressureMaxIn,PressureMinIn,WindSpeedMaxMPH,WindSpeedAvgMPH,GustSpeedMaxMPH,PrecipitationSumIn
2013-1-1,23,15,7,11,2,-6,65,54,40,0.00,40.00,21,12,27,0.00
2013-1-2,21,15,5,6,0,-10,59,50,40,0.00,40.00,24,11,31,0.00
2013-1-3,24,15,5,2,-5,-11,47,40,36,0.00,40.00,27,19,35,0.00
2013-1-4,28,19,14,3,-3,-7,39,36,32,0.00,40.00,29,19,37,0.00
2013-1-5,27,18,10,4,-3,-10,44,38,33,0.00,40.00,23,16,31,0.00
2013-1-6,38,27,19,9,2,-2,39,33,25,0.00,40.00,31,20,39,0.00
2013-1-7,35,26,19,7,2,-3,41,35,28,0.00,40.00,27,18,34,0.00
2013-1-8,38,30,23,13,10,5,53,42,34,0.00,40.00,26,16,34,0.00
2013-1-9,45,35,26,16,12,7,52,39,26,0.00,40.00,35,24,46,0.00
2013-1-10,47,39,27,9,6,4,42,25,19,0.00,40.00,39,20,50,0.00
2013-1-11,29,8,0,15,-2,-10,70,62,42,0.00,40.00,29,14,36,0.00
2013-1-12,7,2,-4,-6,-10,-14,61,58,52,0.00,40.00,10,5,13,0.00
2013-1-13,8,-1,-9,-9,-13,-19,61,55,43,0.00,40.00,15,6,18,0.00
2013-1-14,8,-1,-9,-9,-14,-19,59,51,44,0.00,40.00,26,16,30,0.00
2013-1-15,20,13,2,3,-3,-14,49,47,44,0.00,40.00,29,21,37,0.00
2013-1-16,33,22,15,10,4,0,49,44,37,0.00,40.00,31,21,39,0.00
2013-1-17,37,26,18,9,3,0,45,37,29,0.00,40.00,29,20,34,0.00
2013-1-18,44,31,19,7,3,-1,40,30,20,0.00,40.00,30,15,37,0.00
2013-1-19,44,30,19,5,2,-3,37,30,18,0.00,40.00,25,15,32,0.00
2013-1-20,29,24,18,11,6,0,65,46,33,0.00,40.00,22,10,27,0.00
2013-1-21,44,30,17,8,4,1,50,34,18,0.00,40.00,26,16,34,0.00
2013-1-22,48,34,23,4,2,-1,35,26,14,0.00,40.00,29,16,36,0.00
2013-1-23,51,39,33,5,2,0,26,21,14,0.00,40.00,29,20,37,0.00
2013-1-24,48,39,27,18,11,2,56,31,21,0.00,40.00,32,17,41,0.00
2013-1-25,48,35,22,17,14,10,64,44,23,0.00,40.00,30,10,39,0.00
2013-1-26,51,39,28,21,17,12,55,40,28,0.00,40.00,30,15,36,0.00
2013-1-27,44,36,28,21,20,18,72,52,36,0.00,40.00,17,9,21,0.00
2013-1-28,29,24,13,21,14,4,72,66,53,0.00,40.00,16,8,19,0.00
2013-1-29,23,13,4,6,-2,-9,65,53,33,0.00,40.00,23,12,27,0.00
2013-1-30,31,18,-3,12,2,-13,67,49,35,0.00,40.00,21,14,30,0.00
2013-1-31,34,25,12,12,8,2,65,49,35,0.00,40.00,16,8,21,0.00
2013-2-1,36,29,19,17,12,8,69,49,38,0.00,40.00,19,11,26,0.00
2013-2-2,41,28,16,8,6,1,51,38,22,0.00,40.00,22,11,27,0.00
2013-2-3,43,31,20,10,7,2,54,36,23,0.00,40.00,24,14,30,0.00
2013-2-4,43,32,24,9,6,3,41,33,22,0.00,40.00,20,12,25,0.00
2013-2-5,46,34,21,14,10,5,50,37,25,0.00,40.00,23,13,29,0.00
2013-2-6,41,34,24,15,10,6,64,36,27,0.00,40.00,22,12,27,0.00
2013-2-7,42,29,17,14,4,-2,69,38,16,0.00,40.00,32,16,39,0.00
2013-2-8,46,33,21,18,5,-2,69,32,16,0.00,40.00,17,9,20,0.00
2013-2-9,27,25,21,17,14,10,69,64,47,0.00,40.00,21,14,27,0.00
2013-2-10,23,18,5,14,7,-5,69,61,47,0.00,40.00,29,8,36,0.00
2013-2-11,19,10,1,-1,-5,-10,61,50,37,0.00,40.00,21,13,24,0.00
2013-2-12,24,16,9,4,-2,-7,51,44,38,0.00,40.00,27,19,32,0.00
2013-2-13,40,27,17,18,10,3,69,49,26,0.00,40.00,28,16,34,0.00
2013-2-14,27,22,17,17,7,-3,68,52,30,0.00,40.00,29,11,39,0.00
2013-2-15,31,21,11,11,6,1,65,52,30,0.00,40.00,20,9,27,0.00
2013-2-16,42,30,20,13,9,3,50,40,29,0.00,40.00,29,18,34,0.00
2013-2-17,42,31,23,18,10,5,67,44,22,0.00,40.00,32,20,40,0.00
2013-2-18,29,23,12,14,9,-1,66,55,32,0.00,40.00,17,7,21,0.00
2013-2-19,40,24,6,8,1,-5,61,39,16,0.00,40.00,25,12,32,0.00
2013-2-20,37,25,13,13,7,3,69,48,27,0.00,40.00,21,10,24,0.00
2013-2-21,26,21,14,13,10,3,68,62,48,0.00,40.00,12,7,15,0.00
2013-2-22,33,21,11,8,1,-7,66,44,19,0.00,40.00,18,9,28,0.00
2013-2-23,37,27,17,19,10,1,70,49,30,0.00,40.00,34,20,43,0.00
2013-2-24,26,20,8,14,9,-3,68,61,42,0.00,40.00,32,18,40,0.00
2013-2-25,26,19,7,6,1,-5,59,45,37,0.00,40.00,34,22,41,0.00
2013-2-26,28,24,17,15,10,5,68,55,41,0.00,40.00,27,14,34,0.00
2013-2-27,23,17,9,7,1,-5,64,50,39,0.00,40.00,22,13,26,0.00
2013-2-28,31,21,11,7,1,-4,48,40,34,0.00,40.00,22,15,30,0.00
2013-3-1,41,30,16,17,8,-2,48,39,30,0.00,40.00,19,11,28,0.00
2013-3-2,47,40,33,20,18,14,47,40,33,0.00,40.00,27,18,34,0.00
2013-3-3,48,39,24,20,17,11,62,41,30,0.00,40.00,34,20,39,0.00
2013-3-4,26,21,11,14,1,-5,66,43,27,0.00,40.00,31,8,39,0.00
2013-3-5,42,25,9,5,1,-3,58,38,18,0.00,40.00,19,11,27,0.00
2013-3-6,53,39,27,13,8,3,38,28,17,0.00,40.00,30,18,39,0.00
2013-3-7,51,40,31,16,12,9,44,32,22,0.00,40.00,20,12,24,0.00
2013-3-8,53,37,28,19,16,11,67,43,22,0.00,40.00,17,7,24,0.00
2013-3-9,35,30,22,20,11,3,68,48,27,0.00,40.00,34,20,42,0.00
2013-3-10,50,33,17,11,5,-1,64,36,14,0.00,40.00,14,7,19,0.00
2013-3-11,40,31,21,20,14,3,70,51,21,0.00,40.00,26,4,32,0.00
2013-3-12,42,27,10,17,11,0,68,51,29,0.00,40.00,16,8,22,0.00
2013-3-13,58,44,32,19,15,10,55,33,16,0.00,40.00,25,15,31,0.00
2013-3-14,64,50,35,20,16,11,42,26,13,0.00,40.00,25,14,34,0.00
2013-3-15,63,51,39,19,15,11,39,23,13,0.00,40.00,26,13,30,0.00
2013-3-16,50,39,30,23,18,12,63,44,23,0.00,40.00,18,9,23,0.00
2013-3-17,44,32,15,21,11,-9,71,46,12,0.00,40.00,37,-10,51,0.00
2013-3-18,35,25,14,4,-1,-5,53,33,19,0.00,40.00,28,11,34,0.00
2013-3-19,34,25,17,15,8,2,68,49,26,0.00,40.00,22,11,27,0.00
2013-3-20,50,32,14,20,9,-2,61,41,13,0.00,40.00,36,17,44,0.00
2013-3-21,39,31,18,24,19,9,72,61,48,0.00,40.00,26,13,34,0.00
2013-3-22,29,22,17,15,10,6,68,60,40,0.00,40.00,26,7,30,0.00
2013-3-23,18,14,11,6,3,0,64,62,56,0.00,40.00,22,15,28,0.00
2013-3-25,34,23,4,4,1,-6,63,39,26,0.00,40.00,17,10,22,0.00
2013-3-26,43,32,21,8,4,1,43,31,19,0.00,40.00,17,9,23,0.00
2013-3-27,52,40,26,21,13,3,43,34,24,0.00,40.00,18,7,24,0.00
2013-3-28,56,45,33,19,13,7,43,28,15,0.00,40.00,19,6,26,0.00
2013-3-29,60,47,37,27,16,8,61,31,15,0.00,40.00,21,9,38,0.00
2013-3-30,47,39,31,29,22,-100,70,54,25,0.00,40.00,21,7,29,0.00
2013-3-31,57,42,29,18,14,7,55,35,14,0.00,40.00,24,12,29,0.00
2013-4-1,52,40,28,17,13,6,52,35,22,0.00,40.00,14,7,22,0.00
2013-4-2,55,42,29,17,10,5,37,26,16,0.00,40.00,13,7,19,0.00
2013-4-3,62,47,33,26,18,10,53,34,15,0.00,40.00,20,12,26,0.00
2013-4-4,67,51,32,26,18,9,65,32,10,0.00,40.00,24,10,27,0.00
2013-4-5,64,51,36,28,21,14,67,32,17,0.00,40.00,42,17,52,0.00
2013-4-6,57,46,33,21,14,8,58,30,14,0.00,40.00,24,11,42,0.00
2013-4-7,56,46,32,21,17,14,51,32,21,0.00,40.00,31,16,40,0.00
2013-4-8,44,26,11,26,12,2,71,58,33,0.00,40.00,35,22,44,0.00
2013-4-9,11,10,8,2,0,-2,65,63,61,0.00,40.00,32,22,42,0.00
2013-4-10,26,17,7,8,2,-3,64,52,35,0.00,40.00,16,7,20,0.00
2013-4-11,45,34,25,24,17,5,67,49,35,0.00,40.00,19,9,24,0.00
2013-4-12,39,33,28,25,20,13,71,60,39,0.00,40.00,19,10,24,0.00
2013-4-13,49,38,26,23,18,13,69,46,27,0.00,40.00,34,17,42,0.00
2013-4-14,33,28,19,22,10,1,70,50,26,0.00,40.00,22,14,29,0.00
2013-4-15,26,21,15,9,6,4,66,54,39,0.00,40.00,17,10,21,0.00
2013-4-16,20,19,18,10,8,4,66,61,48,0.00,40.00,29,19,34,0.00
2013-4-17,20,18,16,8,7,6,66,63,56,0.00,40.00,24,14,29,0.00
2013-4-18,32,21,9,8,4,-2,65,48,32,0.00,40.00,15,9,20,0.00
2013-4-19,48,36,25,21,12,5,52,38,26,0.00,40.00,19,13,23,0.00
2013-4-20,55,43,35,27,21,17,59,43,23,0.00,40.00,18,7,22,0.00
2013-4-21,52,39,28,28,22,12,71,53,20,0.00,40.00,29,10,40,0.00
2013-4-22,27,21,14,19,9,3,69,59,45,0.00,40.00,28,18,34,0.00
2013-4-23,36,23,6,6,0,-10,61,40,14,0.00,40.00,17,1,22,0.00
2013-4-24,44,34,25,11,5,-1,39,30,19,0.00,40.00,26,11,37,0.00
2013-4-25,59,45,31,10,5,-2,38,21,9,0.00,40.00,24,14,33,0.00
2013-4-26,65,51,30,15,9,1,42,20,9,0.00,40.00,17,8,24,0.00
2013-4-27,71,56,36,20,12,6,38,19,9,0.00,40.00,24,10,34,0.00
2013-4-28,63,53,42,27,21,14,54,29,19,0.00,40.00,26,11,31,0.00
2013-4-29,68,52,34,28,17,5,66,32,9,0.00,40.00,42,22,52,0.00
2013-4-30,38,33,28,25,16,9,71,49,33,0.00,40.00,28,16,36,0.00
2013-5-1,36,28,21,20,13,6,70,55,29,0.00,40.00,22,12,27,0.00
2013-5-2,49,36,22,18,8,1,62,35,15,0.00,40.00,16,8,23,0.00
2013-5-3,63,48,28,13,6,1,36,19,9,0.00,40.00,17,8,22,0.00
2013-5-4,55,46,36,17,14,11,42,29,20,0.00,40.00,18,11,26,0.00
2013-5-5,58,47,34,17,13,9,36,26,17,0.00,40.00,18,11,28,0.00
2013-5-6,66,53,36,23,18,15,40,25,16,0.00,40.00,18,8,23,0.00
2013-5-7,70,54,39,31,24,16,44,32,18,0.00,40.00,30,12,41,0.00
2013-5-8,66,55,43,30,24,20,48,31,18,0.00,40.00,27,13,35,0.00
2013-5-9,68,53,43,35,28,24,65,39,20,0.00,40.00,29,8,37,0.00
2013-5-10,67,52,37,33,22,-100,67,37,13,0.00,40.00,25,10,32,0.00
2013-5-11,69,54,38,31,19,-100,65,30,10,0.00,40.00,15,6,21,0.00
2013-5-12,77,64,48,27,22,17,31,20,13,0.00,40.00,21,10,34,0.00
2013-5-13,84,70,53,31,25,20,31,19,9,0.00,40.00,20,10,31,0.00
2013-5-14,84,70,58,34,23,15,37,18,9,0.00,40.00,29,13,51,0.00
2013-5-15,78,60,42,41,30,21,59,34,18,0.00,40.00,27,8,35,0.00
2013-5-16,73,57,47,40,18,-100,68,38,15,0.00,40.00,32,11,44,0.00
2013-5-17,79,60,48,42,29,-100,69,42,9,0.00,40.00,32,10,40,0.00
2013-5-18,71,55,44,40,29,16,69,44,12,0.00,40.00,29,9,35,0.00
2013-5-19,53,47,45,37,35,28,68,61,42,0.00,40.00,22,5,30,0.00
2013-5-20,51,45,41,34,27,17,66,51,26,0.00,40.00,30,21,40,0.00
2013-5-21,60,49,40,29,23,16,62,40,18,0.00,40.00,21,10,29,0.00
2013-5-22,63,50,38,32,27,21,67,44,20,0.00,40.00,38,13,52,0.00
2013-5-23,65,53,42,35,32,31,67,46,29,0.00,40.00,43,30,55,0.00
2013-5-24,72,61,47,36,20,4,55,25,9,0.00,40.00,27,16,36,0.00
2013-5-25,80,65,45,34,18,2,49,19,9,0.00,40.00,25,10,34,0.00
2013-5-26,76,61,45,38,32,15,63,36,17,0.00,40.00,22,10,29,0.00
2013-5-27,73,59,47,42,28,10,69,38,9,0.00,40.00,36,12,44,0.00
2013-5-28,72,55,43,34,27,22,55,36,16,0.00,40.00,30,10,37,0.00
2013-5-29,59,50,45,38,32,24,68,51,27,0.00,40.00,27,11,32,0.00
2013-5-30,57,50,45,37,25,19,66,38,23,0.00,40.00,30,18,40,0.00
2013-5-31,53,47,41,32,23,19,68,39,27,0.00,40.00,32,17,47,0.00
2013-6-1,63,51,41,32,24,18,69,38,18,0.00,40.00,16,9,21,0.00
2013-6-2,82,62,40,28,21,15,54,25,9,0.00,40.00,19,11,29,0.00
2013-6-3,71,60,45,39,19,6,62,25,9,0.00,40.00,30,14,42,0.00
2013-6-4,55,46,36,28,24,21,67,43,29,0.00,40.00,24,11,29,0.00
2013-6-5,66,52,37,27,23,19,60,35,17,0.00,40.00,18,6,22,0.00
2013-6-6,74,61,43,27,24,19,39,25,16,0.00,40.00,17,8,21,0.00
2013-6-7,80,66,51,33,28,19,36,24,10,0.00,40.00,17,9,24,0.00
2013-6-8,71,61,51,42,30,16,66,34,12,0.00,40.00,34,4,44,0.00
2013-6-9,88,68,45,33,28,20,51,25,9,0.00,40.00,18,8,35,0.00
2013-6-10,89,73,59,40,33,25,36,24,12,0.00,40.00,35,11,44,0.00
2013-6-11,90,70,51,43,32,16,66,30,9,0.00,40.00,34,13,44,0.00
2013-6-12,85,64,45,40,35,20,67,39,10,0.00,40.00,35,13,45,0.00
2013-6-13,87,68,51,40,34,21,64,34,9,0.00,40.00,32,14,46,0.00
2013-6-14,78,64,46,42,28,13,61,31,9,0.00,40.00,37,18,63,0.00
2013-6-15,79,63,42,33,27,22,50,28,13,0.00,40.00,13,6,20,0.00
2013-6-16,82,70,52,34,25,18,36,20,9,0.00,40.00,19,9,28,0.00
2013-6-17,82,67,53,40,35,29,50,32,18,0.00,40.00,28,12,34,0.00
2013-6-18,86,68,53,41,34,26,49,29,13,0.00,40.00,39,13,50,0.00
2013-6-19,90,74,54,39,28,8,45,22,9,0.00,40.00,35,17,42,0.00
2013-6-20,78,62,49,18,12,4,20,14,9,0.00,40.00,22,11,29,0.00
2013-6-22,65,53,49,39,37,34,64,55,33,0.00,40.00,29,13,34,0.00
2013-6-23,81,62,44,38,29,16,68,37,9,0.00,40.00,22,10,32,0.00
2013-6-24,88,68,53,40,29,14,57,29,9,0.00,40.00,27,12,35,0.00
2013-6-25,81,72,59,32,26,19,32,18,12,0.00,40.00,28,16,34,0.00
2013-6-26,88,77,58,38,30,24,34,18,12,0.00,40.00,22,12,34,0.00
2013-6-27,91,75,59,43,35,25,48,27,9,0.00,40.00,17,8,27,0.00
2013-6-28,89,76,62,44,40,38,45,29,18,0.00,40.00,22,11,30,0.00
2013-6-29,87,76,62,42,38,36,40,26,17,0.00,40.00,21,11,27,0.00
2013-6-30,84,67,60,48,41,30,65,42,16,0.00,40.00,12,6,18,0.00
2013-7-1,83,71,57,38,34,31,41,27,16,0.00,40.00,18,12,24,0.00
2013-7-2,85,74,58,39,34,28,47,25,13,0.00,40.00,16,9,21,0.00
2013-7-3,88,74,57,46,36,26,38,26,13,0.00,40.00,20,9,29,0.00
2013-7-4,88,75,56,49,41,34,67,32,16,0.00,40.00,25,8,31,0.00
2013-7-5,72,61,57,49,46,43,68,60,36,0.00,40.00,17,-33,24,0.00
2013-7-6,83,62,58,47,43,31,65,52,15,0.00,40.00,21,9,24,0.00
2013-7-7,92,73,59,48,36,23,65,35,9,0.00,40.00,20,9,24,0.00
2013-7-8,86,61,59,43,33,-100,51,41,10,0.00,40.00,19,12,26,0.00
2013-7-9,86,76,57,38,35,30,45,24,14,0.00,40.00,22,12,26,0.00
2013-7-10,93,78,62,44,26,-100,45,19,9,0.00,40.00,22,11,34,0.00
2013-7-11,98,83,65,44,37,27,40,23,9,0.00,40.00,19,10,34,0.00
2013-7-12,82,75,67,45,40,35,43,29,23,0.00,40.00,17,10,26,0.00
2013-7-13,88,75,60,44,38,31,51,28,14,0.00,40.00,14,9,24,0.00
2013-7-15,84,81,72,39,34,32,30,19,16,0.00,40.00,23,18,30,0.00
2013-7-16,82,70,64,44,40,30,45,34,15,0.00,40.00,21,13,31,0.00
2013-7-17,89,63,56,45,41,30,63,48,11,0.00,40.00,15,8,20,0.00
2013-7-18,89,80,70,40,36,32,28,21,14,0.00,40.00,16,10,21,0.00
2013-7-19,72,71,68,45,44,44,42,38,36,0.00,40.00,7,6,8,0.00
2013-7-22,94,88,72,36,27,17,22,11,9,0.00,40.00,20,-52,29,0.00
2013-7-23,88,75,58,44,35,27,52,27,11,0.00,40.00,17,8,21,0.00
2013-7-24,85,74,60,46,42,34,50,32,21,0.00,40.00,27,12,42,0.00
2013-7-25,82,70,61,43,40,35,48,33,20,0.00,40.00,15,8,19,0.00
2013-7-26,87,72,54,42,39,35,54,32,16,0.00,40.00,22,10,27,0.00
2013-7-27,78,66,55,44,41,36,59,41,25,0.00,40.00,25,13,32,0.00
2013-7-28,83,70,58,48,41,34,66,37,18,0.00,40.00,28,11,38,0.00
2013-7-29,78,64,53,46,41,36,66,45,24,0.00,40.00,22,11,29,0.00
2013-7-30,76,65,54,44,38,29,65,40,17,0.00,40.00,22,13,30,0.00
2013-7-31,83,64,51,42,38,31,65,43,15,0.00,40.00,14,9,19,0.00
2013-8-1,85,65,56,43,40,34,57,43,19,0.00,40.00,17,9,22,0.00
2013-8-2,89,73,63,47,38,25,52,31,9,0.00,40.00,21,11,31,0.00
2013-8-3,71,62,55,48,47,45,69,57,41,0.00,40.00,29,14,39,0.00
2013-8-4,90,72,59,48,38,25,66,41,9,0.00,40.00,10,6,14,0.00
2013-8-5,89,72,62,50,38,20,63,38,9,0.00,40.00,19,13,26,0.00
2013-8-6,83,76,65,38,34,32,31,22,15,0.00,40.00,18,10,25,0.00
2013-8-7,86,75,59,42,36,29,48,26,13,0.00,40.00,25,8,30,0.00
2013-8-8,82,67,53,40,36,31,55,35,19,0.00,40.00,29,11,63,0.00
2013-8-9,75,61,54,43,39,34,57,46,23,0.00,40.00,19,10,24,0.00
2013-8-10,82,70,52,40,34,27,61,29,14,0.00,40.00,20,8,35,0.00
2013-8-11,87,69,56,42,33,24,50,28,10,0.00,40.00,22,10,28,0.00